Weather History for KTUS - November, 2013

Change the Weather History Date:

Sunday, November 10, 2013

  Actual Average Record
Temperature  
Mean Temperature 70 °F 62 °F  
Max Temperature 87 °F 76 °F 91 °F (1934)
Min Temperature 53 °F 48 °F 27 °F (1919)
Degree Days  
Heating Degree Days 0 4  
Month to date heating degree days 10 33  
Since 1 July heating degree days 23 57  
Cooling Degree Days 5 1  
Month to date cooling degree days 21 19  
Year to date cooling degree days 3625 3138  
Growing Degree Days 20 (Base 50)    
Moisture  
Dew Point 33 °F    
Average Humidity 30    
Maximum Humidity 47    
Minimum Humidity 13    
Precipitation  
Precipitation 0.00 in 0.01 in 1.47 in (1923)
Month to date precipitation 0.12 0.17  
Year to date precipitation 5.60 10.26  
Snow  
Snow 0.00 in - - ()
Month to date snowfall 0.0  
Snow Depth 0.00 in    
Sea Level Pressure  
Sea Level Pressure 30.01 in    
Wind  
Wind Speed 5 mph (SSW)    
Max Wind Speed 14 mph    
Max Gust Speed 17 mph    
Visibility 10 miles    
Events      
T = Trace of Precipitation, MM = Missing Value Source: NWS Daily Summary

Daily Weather History Graph

Daily Weather History Graph

Search for Another Location

Airport or City:

Trip Planner

Search our weather history database for the weather conditions in past years. The results will help you decide how hot, cold, wet, or windy it might be!

Date:

Astronomy

Nov. 10, 2013 Rise Set
Actual Time 6:48 AM MST 5:26 PM MST
Civil Twilight 6:22 AM MST 5:52 PM MST
Nautical Twilight 5:53 AM MST 6:21 PM MST
Astronomical Twilight 5:24 AM MST 6:50 PM MST
Moon 1:11 PM MST (11/10) No Moon Set
Length of Visible Light 11h 29m
Length of Day
10h 37m
First Quarter, 56% of the Moon is Illuminated
Nov 10
First Quarter
Nov 17
Full
Nov 25
Last Quarter
Dec 2
New
Dec 9
First Quarter

Hourly Weather History & Observations

Time (MST) Temp. Dew Point Humidity Pressure Visibility Wind Dir Wind Speed Gust Speed Precip Events Conditions
12:53 AM 57.9 °F 34.0 °F 41% 30.03 in 10.0 mi SSE 4.6 mph - N/A   Clear
1:53 AM 55.9 °F 33.1 °F 42% 30.04 in 10.0 mi SE 5.8 mph - N/A   Clear
2:53 AM 55.9 °F 34.0 °F 44% 30.03 in 10.0 mi South 6.9 mph - N/A   Clear
3:53 AM 54.0 °F 33.1 °F 45% 30.03 in 10.0 mi SSE 8.1 mph - N/A   Clear
4:53 AM 53.1 °F 33.1 °F 47% 30.04 in 10.0 mi SSE 6.9 mph - N/A   Clear
5:53 AM 53.1 °F 34.0 °F 48% 30.06 in 10.0 mi SSE 6.9 mph - N/A   Clear
6:53 AM 53.1 °F 34.0 °F 48% 30.07 in 10.0 mi SSE 5.8 mph - N/A   Clear
7:53 AM 55.9 °F 35.1 °F 45% 30.09 in 10.0 mi SSE 9.2 mph - N/A   Clear
8:53 AM 62.1 °F 36.0 °F 38% 30.10 in 10.0 mi SSE 6.9 mph - N/A   Clear
9:53 AM 69.1 °F 35.1 °F 29% 30.08 in 10.0 mi SSE 4.6 mph - N/A   Clear
10:53 AM 75.0 °F 34.0 °F 22% 30.04 in 10.0 mi Calm Calm - N/A   Clear
11:53 AM 81.0 °F 32.0 °F 17% 30.01 in 10.0 mi NNW 6.9 mph - N/A   Clear
12:53 PM 84.0 °F 30.9 °F 15% 29.97 in 10.0 mi NW 5.8 mph - N/A   Clear
1:53 PM 84.9 °F 30.9 °F 14% 29.95 in 10.0 mi Calm Calm - N/A   Clear
2:53 PM 86.0 °F 30.9 °F 14% 29.94 in 10.0 mi Calm Calm - N/A   Clear
3:53 PM 84.9 °F 30.9 °F 14% 29.94 in 10.0 mi NNW 8.1 mph - N/A   Clear
4:53 PM 81.0 °F 33.1 °F 18% 29.95 in 10.0 mi NNW 9.2 mph - N/A   Clear
5:53 PM 78.1 °F 33.1 °F 19% 29.96 in 10.0 mi NW 8.1 mph - N/A   Clear
6:53 PM 73.9 °F 34.0 °F 23% 29.99 in 10.0 mi West 6.9 mph - N/A   Clear
7:53 PM 70.0 °F 33.1 °F 26% 30.00 in 10.0 mi West 6.9 mph - N/A   Clear
8:53 PM 69.1 °F 33.1 °F 26% 30.01 in 10.0 mi SW 3.5 mph - N/A   Clear
9:53 PM 64.9 °F 33.1 °F 31% 30.01 in 10.0 mi WSW 5.8 mph - N/A   Clear
10:53 PM 64.0 °F 33.1 °F 31% 30.01 in 10.0 mi WSW 4.6 mph - N/A   Clear
11:53 PM 60.1 °F 32.0 °F 35% 30.00 in 10.0 mi SE 6.9 mph - N/A   Clear